When you browse on this site, cookies collect data to enhance your experience and personalize the content and advertising you see.
Visit our Privacy Policy to learn more. By continuing to use the site, you agree to this use of cookies and data.
  • In Latvia
  • List of Countries
  • For 7 days
  • Water Temperature
  • Satellite Maps
  • Weather Map
  • Weather Widgets
  • user-avatar
    Login

    Hourly Weather Koniz

    Today, 21 July, Sunday

    Time Temperature Precipitation Wind Pressure Humidity
    00:00 +19°C° 0.2 mm 1 mps 711 mmHg 90%
    01:00 +19°C° 0.7 mm 1 mps 711 mmHg 91%
    02:00 +19°C° 0.7 mm 1 mps 711 mmHg 93%
    03:00 +19°C° 0.7 mm 1 mps 711 mmHg 94%
    04:00 +19°C° 0.2 mm 1 mps 712 mmHg 93%
    05:00 +20°C° 0.2 mm 1 mps 712 mmHg 93%
    06:00 +20°C° 0.2 mm 1 mps 712 mmHg 92%
    07:00 +22°C° 0.4 mm 1 mps 713 mmHg 86%
    08:00 +23°C° 0.4 mm 1 mps 713 mmHg 80%
    09:00 +25°C° 0.4 mm 1 mps 714 mmHg 74%
    10:00 +26°C° 0.2 mm 2 mps 714 mmHg 69%
    11:00 +27°C° 0.2 mm 2 mps 714 mmHg 63%
    12:00 +28°C° 0.2 mm 2 mps 714 mmHg 57%
    13:00 +28°C° 0.2 mm 2 mps 714 mmHg 56%
    14:00 +28°C° 0.2 mm 2 mps 714 mmHg 54%
    15:00 +29°C° 0.2 mm 2 mps 714 mmHg 53%
    16:00 +27°C° 0.1 mm 2 mps 714 mmHg 63%
    17:00 +25°C° 0.1 mm 2 mps 714 mmHg 73%
    18:00 +24°C° 0.1 mm 1 mps 713 mmHg 83%
    19:00 +22°C° 0 mm 1 mps 714 mmHg 85%
    20:00 +21°C° 0 mm 1 mps 714 mmHg 88%
    21:00 +19°C° 0 mm 1 mps 714 mmHg 91%
    22:00 +19°C° 0 mm 1 mps 714 mmHg 91%
    23:00 +19°C° 0 mm 1 mps 714 mmHg 90%

    Tomorrow, 22 July, Monday

    Time Temperature Precipitation Wind Pressure Humidity
    00:00 +18°C° 0 mm 1 mps 714 mmHg 90%
    01:00 +18°C° 0 mm 1 mps 714 mmHg 90%
    02:00 +18°C° 0 mm 1 mps 714 mmHg 90%
    03:00 +16°C° 0 mm 1 mps 714 mmHg 90%
    04:00 +16°C° 0 mm 0 mps 714 mmHg 88%
    05:00 +17°C° 0 mm 0 mps 714 mmHg 86%
    06:00 +18°C° 0 mm 0 mps 714 mmHg 84%
    07:00 +20°C° 0 mm 0 mps 715 mmHg 76%
    08:00 +25°C° 0 mm 1 mps 715 mmHg 68%
    09:00 +27°C° 0 mm 1 mps 715 mmHg 61%
    10:00 +28°C° 0 mm 1 mps 715 mmHg 57%
    11:00 +29°C° 0 mm 1 mps 715 mmHg 52%
    12:00 +30°C° 0 mm 1 mps 715 mmHg 48%
    13:00 +31°C° 0 mm 1 mps 715 mmHg 47%
    14:00 +31°C° 0 mm 1 mps 715 mmHg 46%
    15:00 +31°C° 0 mm 1 mps 714 mmHg 45%
    16:00 +29°C° 0 mm 1 mps 714 mmHg 53%
    17:00 +28°C° 0 mm 1 mps 714 mmHg 62%
    18:00 +26°C° 0 mm 1 mps 714 mmHg 70%
    19:00 +24°C° 0 mm 1 mps 714 mmHg 75%
    20:00 +23°C° 0 mm 1 mps 714 mmHg 79%
    21:00 +21°C° 0 mm 1 mps 714 mmHg 83%
    22:00 +20°C° 0 mm 1 mps 714 mmHg 84%
    23:00 +20°C° 0 mm 1 mps 713 mmHg 84%

    Day after tomorrow, 23 July, Tuesday

    Time Temperature Precipitation Wind Pressure Humidity
    00:00 +19°C° 0 mm 1 mps 713 mmHg 85%
    01:00 +19°C° 0 mm 1 mps 713 mmHg 86%
    02:00 +19°C° 0 mm 1 mps 713 mmHg 88%
    03:00 +19°C° 0 mm 1 mps 713 mmHg 89%
    04:00 +18°C° 0 mm 0 mps 712 mmHg 87%
    05:00 +19°C° 0 mm 0 mps 712 mmHg 84%
    06:00 +20°C° 0 mm 0 mps 712 mmHg 82%
    07:00 +22°C° 0 mm 0 mps 713 mmHg 75%
    08:00 +26°C° 0 mm 1 mps 713 mmHg 68%
    09:00 +28°C° 0 mm 1 mps 713 mmHg 61%
    10:00 +29°C° 0 mm 1 mps 713 mmHg 56%
    11:00 +31°C° 0 mm 1 mps 713 mmHg 52%
    12:00 +32°C° 0 mm 1 mps 712 mmHg 48%
    13:00 +32°C° 0.1 mm 1 mps 712 mmHg 48%
    14:00 +32°C° 0.1 mm 1 mps 712 mmHg 47%
    15:00 +32°C° 0.1 mm 1 mps 712 mmHg 47%
    16:00 +30°C° 0.2 mm 1 mps 711 mmHg 55%
    17:00 +29°C° 0.2 mm 1 mps 711 mmHg 63%
    18:00 +25°C° 0.2 mm 0 mps 711 mmHg 71%
    19:00 +26°C° 0 mm 1 mps 711 mmHg 73%
    20:00 +25°C° 0 mm 1 mps 711 mmHg 75%
    21:00 +23°C° 0 mm 1 mps 711 mmHg 78%
    22:00 +23°C° 0 mm 1 mps 711 mmHg 79%
    23:00 +22°C° 0 mm 1 mps 711 mmHg 81%

    24 July, Wednesday

    Time Temperature Precipitation Wind Pressure Humidity
    00:00 +22°C° 0 mm 1 mps 711 mmHg 83%
    01:00 +21°C° 0 mm 1 mps 710 mmHg 83%
    02:00 +21°C° 0 mm 1 mps 710 mmHg 84%
    03:00 +21°C° 0 mm 1 mps 710 mmHg 84%
    04:00 +22°C° 0 mm 1 mps 710 mmHg 82%
    05:00 +23°C° 0 mm 1 mps 710 mmHg 80%
    06:00 +22°C° 0 mm 0 mps 711 mmHg 78%
    07:00 +26°C° 0 mm 1 mps 711 mmHg 69%
    08:00 +28°C° 0 mm 1 mps 711 mmHg 60%
    09:00 +31°C° 0 mm 1 mps 712 mmHg 52%
    10:00 +32°C° 0 mm 1 mps 712 mmHg 49%
    11:00 +32°C° 0 mm 2 mps 711 mmHg 46%
    12:00 +34°C° 0 mm 2 mps 711 mmHg 43%
    13:00 +34°C° 0.1 mm 2 mps 711 mmHg 44%
    14:00 +33°C° 0.1 mm 1 mps 711 mmHg 44%
    15:00 +33°C° 0.1 mm 1 mps 711 mmHg 44%
    16:00 +32°C° 0 mm 1 mps 711 mmHg 52%
    17:00 +30°C° 0 mm 1 mps 711 mmHg 60%
    18:00 +26°C° 0 mm 0 mps 710 mmHg 68%
    19:00 +27°C° 0 mm 1 mps 711 mmHg 69%
    20:00 +26°C° 0 mm 1 mps 711 mmHg 70%
    21:00 +25°C° 0 mm 1 mps 711 mmHg 70%
    22:00 +24°C° 0 mm 1 mps 711 mmHg 71%
    23:00 +24°C° 0 mm 1 mps 710 mmHg 72%

    25 July, Thursday

    Time Temperature Precipitation Wind Pressure Humidity
    00:00 +23°C° 0 mm 1 mps 710 mmHg 72%
    01:00 +23°C° 0 mm 1 mps 710 mmHg 73%
    02:00 +22°C° 0 mm 1 mps 710 mmHg 74%
    03:00 +22°C° 0 mm 1 mps 710 mmHg 75%
    04:00 +23°C° 0 mm 1 mps 710 mmHg 74%
    05:00 +22°C° 0 mm 0 mps 710 mmHg 73%
    06:00 +23°C° 0 mm 0 mps 710 mmHg 72%
    07:00 +25°C° 0 mm 0 mps 710 mmHg 66%
    08:00 +29°C° 0 mm 1 mps 710 mmHg 60%
    09:00 +31°C° 0 mm 1 mps 710 mmHg 54%
    10:00 +32°C° 0 mm 1 mps 710 mmHg 51%
    11:00 +33°C° 0 mm 1 mps 710 mmHg 48%
    12:00 +34°C° 0 mm 1 mps 710 mmHg 45%
    13:00 +34°C° 0.2 mm 1 mps 710 mmHg 45%
    14:00 +34°C° 0.2 mm 1 mps 709 mmHg 46%
    15:00 +33°C° 0.2 mm 1 mps 709 mmHg 46%
    16:00 +32°C° 0.2 mm 1 mps 709 mmHg 54%
    17:00 +29°C° 0.2 mm 0 mps 709 mmHg 61%
    18:00 +27°C° 0.2 mm 0 mps 708 mmHg 69%
    19:00 +28°C° 0.1 mm 1 mps 708 mmHg 71%
    20:00 +26°C° 0.1 mm 1 mps 708 mmHg 73%
    21:00 +25°C° 0.1 mm 1 mps 708 mmHg 75%
    22:00 +24°C° 0.3 mm 1 mps 708 mmHg 77%
    23:00 +24°C° 0.3 mm 1 mps 708 mmHg 79%

    26 July, Friday

    Time Temperature Precipitation Wind Pressure Humidity
    00:00 +23°C° 0.3 mm 1 mps 708 mmHg 81%
    01:00 +23°C° 1.4 mm 1 mps 708 mmHg 85%
    02:00 +22°C° 1.4 mm 1 mps 708 mmHg 88%
    03:00 +21°C° 1.4 mm 1 mps 708 mmHg 91%
    04:00 +22°C° 0.4 mm 1 mps 708 mmHg 90%
    05:00 +22°C° 0.4 mm 1 mps 708 mmHg 89%
    06:00 +23°C° 0.4 mm 1 mps 708 mmHg 88%
    07:00 +24°C° 0.2 mm 1 mps 709 mmHg 80%
    08:00 +26°C° 0.2 mm 1 mps 709 mmHg 71%
    09:00 +28°C° 0.2 mm 2 mps 709 mmHg 63%
    10:00 +29°C° 0.4 mm 2 mps 709 mmHg 58%
    11:00 +29°C° 0.4 mm 2 mps 709 mmHg 52%
    12:00 +30°C° 0.4 mm 2 mps 709 mmHg 46%
    13:00 +30°C° 0.1 mm 2 mps 709 mmHg 45%
    14:00 +31°C° 0.1 mm 2 mps 709 mmHg 44%
    15:00 +31°C° 0.1 mm 2 mps 709 mmHg 44%
    16:00 +29°C° 0.3 mm 2 mps 709 mmHg 55%
    17:00 +27°C° 0.3 mm 2 mps 709 mmHg 67%
    18:00 +25°C° 0.3 mm 2 mps 709 mmHg 79%
    19:00 +23°C° 0.7 mm 2 mps 709 mmHg 85%
    20:00 +22°C° 0.7 mm 1 mps 709 mmHg 90%
    21:00 +18°C° 0.7 mm 0 mps 709 mmHg 96%
    22:00 +18°C° 0.4 mm 0 mps 710 mmHg 96%
    23:00 +18°C° 0.4 mm 0 mps 710 mmHg 96%
    Show more